Year,Month,Day,Hour,Minute,Value (Times are PST for barometer in hPa)
2012,03,14,00,00,1006.10
2012,03,14,00,01,1006.04
2012,03,14,00,02,1006.03
2012,03,14,00,03,1006.10
2012,03,14,00,04,1006.00
2012,03,14,00,05,1006.03
2012,03,14,00,06,1006.03
2012,03,14,00,07,1005.99
2012,03,14,00,08,1005.99
2012,03,14,00,09,1005.93
2012,03,14,00,10,1005.93
2012,03,14,00,11,1005.89
2012,03,14,00,12,1005.93
2012,03,14,00,13,1005.89
2012,03,14,00,14,1005.93
2012,03,14,00,15,1005.86
2012,03,14,00,16,1005.89
2012,03,14,00,17,1005.83
2012,03,14,00,18,1005.83
2012,03,14,00,19,1005.79
2012,03,14,00,20,1005.76
2012,03,14,00,21,1005.72
2012,03,14,00,22,1005.69
2012,03,14,00,23,1005.59
2012,03,14,00,24,1005.59
2012,03,14,00,25,1005.52
2012,03,14,00,26,1005.42
2012,03,14,00,27,1005.49
2012,03,14,00,28,1005.49
2012,03,14,00,29,1005.61
2012,03,14,00,30,1005.66
2012,03,14,00,31,1005.72
2012,03,14,00,32,1005.72
2012,03,14,00,33,1005.87
2012,03,14,00,34,1005.96
2012,03,14,00,35,1005.99
2012,03,14,00,36,1005.99
2012,03,14,00,37,1005.99
2012,03,14,00,38,1006.12
2012,03,14,00,39,1006.07
2012,03,14,00,40,1006.16
2012,03,14,00,41,1006.23
2012,03,14,00,42,1006.20
2012,03,14,00,43,1006.20
2012,03,14,00,44,1006.20
2012,03,14,00,45,1006.10
2012,03,14,00,46,1005.97
2012,03,14,00,47,1005.90
2012,03,14,00,48,1005.89
2012,03,14,00,49,1005.79
2012,03,14,00,50,1005.76
2012,03,14,00,51,1005.72
2012,03,14,00,52,1005.69
2012,03,14,00,53,1005.66
2012,03,14,00,54,1005.62
2012,03,14,00,55,1005.59
2012,03,14,00,56,1005.55
2012,03,14,00,57,1005.55
2012,03,14,00,58,1005.55
2012,03,14,00,59,1005.49
2012,03,14,01,00,1005.49
2012,03,14,01,01,1005.45
2012,03,14,01,02,1005.42
2012,03,14,01,03,1005.42
2012,03,14,01,04,1005.45
2012,03,14,01,05,1005.39
2012,03,14,01,06,1005.35
2012,03,14,01,07,1005.32
2012,03,14,01,08,1005.35
2012,03,14,01,09,1005.35
2012,03,14,01,10,1005.32
2012,03,14,01,11,1005.28
2012,03,14,01,12,1005.19
2012,03,14,01,13,1005.18
2012,03,14,01,14,1005.11
2012,03,14,01,15,1005.06
2012,03,14,01,16,1005.08
2012,03,14,01,17,1005.08
2012,03,14,01,18,1005.08
2012,03,14,01,19,1005.15
2012,03,14,01,20,1005.18
2012,03,14,01,21,1005.25
2012,03,14,01,22,1005.38
2012,03,14,01,23,1005.51
2012,03,14,01,24,1005.59
2012,03,14,01,25,1005.66
2012,03,14,01,26,1005.76
2012,03,14,01,27,1005.63
2012,03,14,01,28,1005.59
2012,03,14,01,29,1005.55
2012,03,14,01,30,1005.46
2012,03,14,01,31,1005.49
2012,03,14,01,32,1005.42
2012,03,14,01,33,1005.39
2012,03,14,01,34,1005.35
2012,03,14,01,35,1005.35
2012,03,14,01,36,1005.32
2012,03,14,01,37,1005.32
2012,03,14,01,38,1005.25
2012,03,14,01,39,1005.28
2012,03,14,01,40,1005.38
2012,03,14,01,41,1005.29
2012,03,14,01,42,1005.19
2012,03,14,01,43,1005.18
2012,03,14,01,44,1005.18
2012,03,14,01,45,1005.18
2012,03,14,01,46,1005.18
2012,03,14,01,47,1005.25
2012,03,14,01,48,1005.25
2012,03,14,01,49,1005.25
2012,03,14,01,50,1005.18
2012,03,14,01,51,1005.12
2012,03,14,01,52,1005.11
2012,03,14,01,53,1005.08
2012,03,14,01,54,1005.08
2012,03,14,01,55,1005.01
2012,03,14,01,56,1005.05
2012,03,14,01,57,1005.10
2012,03,14,01,58,1005.01
2012,03,14,01,59,1005.08
2012,03,14,02,00,1005.08
2012,03,14,02,01,1005.05
2012,03,14,02,02,1005.08
2012,03,14,02,03,1005.05
2012,03,14,02,04,1004.98
2012,03,14,02,05,1005.01
2012,03,14,02,06,1004.98
2012,03,14,02,07,1004.98
2012,03,14,02,08,1004.92
2012,03,14,02,09,1004.95
2012,03,14,02,10,1004.79
2012,03,14,02,11,1004.78
2012,03,14,02,12,1004.78
2012,03,14,02,13,1004.74
2012,03,14,02,14,1004.71
2012,03,14,02,15,1004.62
2012,03,14,02,16,1004.71
2012,03,14,02,17,1004.67
2012,03,14,02,18,1004.77
2012,03,14,02,19,1004.81
2012,03,14,02,20,1004.81
2012,03,14,02,21,1004.78
2012,03,14,02,22,1004.78
2012,03,14,02,23,1004.74
2012,03,14,02,24,1004.71
2012,03,14,02,25,1004.67
2012,03,14,02,26,1004.67
2012,03,14,02,27,1004.67
2012,03,14,02,28,1004.67
2012,03,14,02,29,1004.57
2012,03,14,02,30,1004.61
2012,03,14,02,31,1004.71
2012,03,14,02,32,1004.67
2012,03,14,02,33,1004.71
2012,03,14,02,34,1004.58
2012,03,14,02,35,1004.64
2012,03,14,02,36,1004.71
2012,03,14,02,37,1004.71
2012,03,14,02,38,1004.71
2012,03,14,02,39,1004.67
2012,03,14,02,40,1004.73
2012,03,14,02,41,1004.71
2012,03,14,02,42,1004.71
2012,03,14,02,43,1004.67
2012,03,14,02,44,1004.61
2012,03,14,02,45,1004.61
2012,03,14,02,46,1004.64
2012,03,14,02,47,1004.67
2012,03,14,02,48,1004.62
2012,03,14,02,49,1004.57
2012,03,14,02,50,1004.54
2012,03,14,02,51,1004.54
2012,03,14,02,52,1004.57
2012,03,14,02,53,1004.57
2012,03,14,02,54,1004.54
2012,03,14,02,55,1004.45
2012,03,14,02,56,1004.44
2012,03,14,02,57,1004.38
2012,03,14,02,58,1004.40
2012,03,14,02,59,1004.37
2012,03,14,03,00,1004.44
2012,03,14,03,01,1004.40
2012,03,14,03,02,1004.44
2012,03,14,03,06,1004.44
2012,03,14,03,07,1004.44
2012,03,14,03,08,1004.44
2012,03,14,03,09,1004.44
2012,03,14,03,10,1004.40
2012,03,14,03,11,1004.37
2012,03,14,03,12,1004.37
2012,03,14,03,13,1004.38
2012,03,14,03,14,1004.47
2012,03,14,03,15,1004.40
2012,03,14,03,16,1004.40
2012,03,14,03,17,1004.40
2012,03,14,03,18,1004.30
2012,03,14,03,19,1004.30
2012,03,14,03,20,1004.27
2012,03,14,03,21,1004.30
2012,03,14,03,22,1004.27
2012,03,14,03,23,1004.27
2012,03,14,03,24,1004.37
2012,03,14,03,25,1004.27
2012,03,14,03,26,1004.23
2012,03,14,03,27,1004.17
2012,03,14,03,28,1004.13
2012,03,14,03,29,1004.03
2012,03,14,03,30,1004.10
2012,03,14,03,31,1004.06
2012,03,14,03,32,1003.96
2012,03,14,03,33,1004.00
2012,03,14,03,34,1003.96
2012,03,14,03,35,1003.96
2012,03,14,03,36,1003.96
2012,03,14,03,37,1003.96
2012,03,14,03,38,1003.90
2012,03,14,03,39,1003.90
2012,03,14,03,40,1003.86
2012,03,14,03,41,1003.83
2012,03,14,03,42,1003.79
2012,03,14,03,43,1003.76
2012,03,14,03,44,1003.76
2012,03,14,03,45,1003.69
2012,03,14,03,46,1003.66
2012,03,14,03,47,1003.66
2012,03,14,03,48,1003.59
2012,03,14,03,49,1003.49
2012,03,14,03,50,1003.46
2012,03,14,03,51,1003.51
2012,03,14,03,52,1003.35
2012,03,14,03,53,1003.29
2012,03,14,03,54,1003.22
2012,03,14,03,55,1003.22
2012,03,14,03,56,1003.18
2012,03,14,03,57,1003.15
2012,03,14,03,58,1003.15
2012,03,14,03,59,1003.08
2012,03,14,04,00,1003.01
2012,03,14,04,01,1003.01
2012,03,14,04,02,1003.01
2012,03,14,04,03,1003.05
2012,03,14,04,04,1002.98
2012,03,14,04,05,1002.91
2012,03,14,04,06,1002.88
2012,03,14,04,07,1002.81
2012,03,14,04,08,1002.84
2012,03,14,04,09,1002.74
2012,03,14,04,10,1002.78
2012,03,14,04,11,1002.71
2012,03,14,04,12,1002.68
2012,03,14,04,13,1002.61
2012,03,14,04,14,1002.64
2012,03,14,04,15,1002.64
2012,03,14,04,16,1002.57
2012,03,14,04,17,1002.57
2012,03,14,04,18,1002.57
2012,03,14,04,19,1002.61
2012,03,14,04,20,1002.54
2012,03,14,04,21,1002.51
2012,03,14,04,22,1002.44
2012,03,14,04,23,1002.44
2012,03,14,04,24,1002.50
2012,03,14,04,25,1002.37
2012,03,14,04,26,1002.34
2012,03,14,04,27,1002.34
2012,03,14,04,28,1002.27
2012,03,14,04,29,1002.30
2012,03,14,04,30,1002.30
2012,03,14,04,31,1002.24
2012,03,14,04,32,1002.27
2012,03,14,04,33,1002.23
2012,03,14,04,34,1002.10
2012,03,14,04,35,1002.17
2012,03,14,04,36,1002.20
2012,03,14,04,37,1002.17
2012,03,14,04,38,1002.07
2012,03,14,04,39,1002.10
2012,03,14,04,40,1002.10
2012,03,14,04,41,1002.07
2012,03,14,04,42,1002.00
2012,03,14,04,43,1002.00
2012,03,14,04,44,1001.93
2012,03,14,04,45,1001.90
2012,03,14,04,46,1001.93
2012,03,14,04,47,1001.97
2012,03,14,04,48,1001.93
2012,03,14,04,49,1001.91
2012,03,14,04,50,1001.99
2012,03,14,04,51,1001.86
2012,03,14,04,52,1001.80
2012,03,14,04,53,1001.86
2012,03,14,04,54,1001.90
2012,03,14,04,55,1001.83
2012,03,14,04,56,1001.86
2012,03,14,04,57,1001.83
2012,03,14,04,58,1001.83
2012,03,14,04,59,1001.80
2012,03,14,05,00,1001.80
2012,03,14,05,01,1001.73
2012,03,14,05,02,1001.73
2012,03,14,05,03,1001.69
2012,03,14,05,04,1001.76
2012,03,14,05,05,1001.80
2012,03,14,05,06,1001.80
2012,03,14,05,07,1001.76
2012,03,14,05,08,1001.76
2012,03,14,05,09,1001.76
2012,03,14,05,10,1001.69
2012,03,14,05,11,1001.66
2012,03,14,05,12,1001.66
2012,03,14,05,13,1001.63
2012,03,14,05,14,1001.69
2012,03,14,05,15,1001.65
2012,03,14,05,16,1001.50
2012,03,14,05,17,1001.65
2012,03,14,05,18,1001.52
2012,03,14,05,19,1001.56
2012,03,14,05,20,1001.49
2012,03,14,05,21,1001.42
2012,03,14,05,22,1001.52
2012,03,14,05,23,1001.46
2012,03,14,05,24,1001.39
2012,03,14,05,25,1001.46
2012,03,14,05,26,1001.39
2012,03,14,05,27,1001.36
2012,03,14,05,28,1001.32
2012,03,14,05,29,1001.25
2012,03,14,05,30,1001.25
2012,03,14,05,31,1001.29
2012,03,14,05,32,1001.30
2012,03,14,05,33,1001.41
2012,03,14,05,34,1001.25
2012,03,14,05,35,1001.29
2012,03,14,05,36,1001.28
2012,03,14,05,37,1001.19
2012,03,14,05,38,1001.19
2012,03,14,05,39,1001.15
2012,03,14,05,40,1001.15
2012,03,14,05,41,1001.02
2012,03,14,05,42,1001.05
2012,03,14,05,43,1001.05
2012,03,14,05,44,1000.88
2012,03,14,05,45,1000.81
2012,03,14,05,46,1000.78
2012,03,14,05,47,1000.78
2012,03,14,05,48,1000.85
2012,03,14,05,49,1000.78
2012,03,14,05,50,1000.75
2012,03,14,05,51,1000.71
2012,03,14,05,52,1000.75
2012,03,14,05,53,1000.75
2012,03,14,05,54,1000.61
2012,03,14,05,55,1000.61
2012,03,14,05,56,1000.60
2012,03,14,05,57,1000.48
2012,03,14,05,58,1000.51
2012,03,14,05,59,1000.44
2012,03,14,06,00,1000.44
2012,03,14,06,01,1000.41
2012,03,14,06,02,1000.48
2012,03,14,06,03,1000.41
2012,03,14,06,04,1000.37
2012,03,14,06,05,1000.34
2012,03,14,06,06,1000.27
2012,03,14,06,07,1000.27
2012,03,14,06,08,1000.20
2012,03,14,06,09,1000.31
2012,03,14,06,10,1000.20
2012,03,14,06,11,1000.14
2012,03,14,06,12,1000.23
2012,03,14,06,13,1000.10
2012,03,14,06,14,1000.20
2012,03,14,06,15,1000.14
2012,03,14,06,16,1000.17
2012,03,14,06,17,1000.19
2012,03,14,06,18,1000.03
2012,03,14,06,19,1000.07
2012,03,14,06,20,1000.07
2012,03,14,06,21,1000.00
2012,03,14,06,22,1000.00
2012,03,14,06,23,1000.00
2012,03,14,06,24,1000.00
2012,03,14,06,25,1000.00
2012,03,14,06,26,1000.00
2012,03,14,06,27,999.96
2012,03,14,06,28,999.84
2012,03,14,06,29,999.93
2012,03,14,06,30,999.87
2012,03,14,06,31,999.79
2012,03,14,06,32,999.66
2012,03,14,06,33,999.73
2012,03,14,06,34,999.63
2012,03,14,06,35,999.56
2012,03,14,06,36,999.59
2012,03,14,06,37,999.63
2012,03,14,06,38,999.63
2012,03,14,06,39,999.59
2012,03,14,06,40,999.56
2012,03,14,06,41,999.53
2012,03,14,06,42,999.52
2012,03,14,06,43,999.39
2012,03,14,06,44,999.32
2012,03,14,06,45,999.26
2012,03,14,06,46,999.22
2012,03,14,06,47,999.26
2012,03,14,06,48,999.32
2012,03,14,06,49,999.32
2012,03,14,06,50,999.32
2012,03,14,06,51,999.28
2012,03,14,06,52,999.19
2012,03,14,06,53,999.26
2012,03,14,06,54,999.15
2012,03,14,06,55,999.12
2012,03,14,06,56,999.12
2012,03,14,06,57,999.05
2012,03,14,06,58,999.02
2012,03,14,06,59,999.12
2012,03,14,07,00,999.09
2012,03,14,07,01,998.88
2012,03,14,07,02,998.88
2012,03,14,07,03,998.92
2012,03,14,07,04,998.95
2012,03,14,07,05,999.02
2012,03,14,07,06,998.99
2012,03,14,07,07,998.92
2012,03,14,07,08,998.95
2012,03,14,07,09,998.75
2012,03,14,07,10,998.71
2012,03,14,07,11,998.71
2012,03,14,07,12,998.75
2012,03,14,07,13,998.74
2012,03,14,07,14,998.58
2012,03,14,07,15,998.58
2012,03,14,07,16,998.48
2012,03,14,07,17,998.54
2012,03,14,07,18,998.41
2012,03,14,07,19,998.34
2012,03,14,07,20,998.34
2012,03,14,07,21,998.24
2012,03,14,07,22,998.34
2012,03,14,07,23,998.28
2012,03,14,07,24,998.38
2012,03,14,07,25,998.27
2012,03,14,07,26,998.34
2012,03,14,07,27,998.31
2012,03,14,07,28,998.24
2012,03,14,07,29,998.30
2012,03,14,07,30,998.21
2012,03,14,07,31,998.27
2012,03,14,07,32,998.21
2012,03,14,07,33,998.17
2012,03,14,07,34,998.24
2012,03,14,07,35,998.27
2012,03,14,07,36,998.24
2012,03,14,07,37,998.17
2012,03,14,07,38,998.24
2012,03,14,07,39,998.17
2012,03,14,07,40,998.10
2012,03,14,07,41,998.17
2012,03,14,07,42,998.17
2012,03,14,07,43,998.21
2012,03,14,07,44,998.17
2012,03,14,07,45,998.00
2012,03,14,07,46,998.04
2012,03,14,07,47,998.00
2012,03,14,07,48,998.14
2012,03,14,07,49,998.04
2012,03,14,07,50,997.97
2012,03,14,07,51,998.07
2012,03,14,07,52,998.00
2012,03,14,07,53,997.97
2012,03,14,07,54,998.04
2012,03,14,07,55,998.07
2012,03,14,07,56,998.00
2012,03,14,07,57,998.07
2012,03,14,07,58,998.04
2012,03,14,07,59,997.83
2012,03,14,08,00,997.83
2012,03,14,08,01,997.87
2012,03,14,08,02,997.93
2012,03,14,08,03,997.83
2012,03,14,08,04,997.83
2012,03,14,08,05,997.87
2012,03,14,08,06,997.97
2012,03,14,08,07,997.94
2012,03,14,08,08,997.77
2012,03,14,08,09,997.83
2012,03,14,08,10,997.87
2012,03,14,08,11,997.97
2012,03,14,08,12,997.90
2012,03,14,08,13,998.04
2012,03,14,08,14,997.90
2012,03,14,08,15,997.80
2012,03,14,08,16,997.94
2012,03,14,08,17,997.87
2012,03,14,08,18,997.77
2012,03,14,08,19,997.83
2012,03,14,08,20,997.87
2012,03,14,08,21,997.90
2012,03,14,08,22,997.80
2012,03,14,08,23,997.77
2012,03,14,08,24,997.80
2012,03,14,08,25,997.66
2012,03,14,08,26,997.80
2012,03,14,08,27,997.80
2012,03,14,08,28,997.73
2012,03,14,08,29,997.78
2012,03,14,08,30,997.94
2012,03,14,08,31,997.83
2012,03,14,08,32,997.73
2012,03,14,08,33,997.83
2012,03,14,08,34,997.63
2012,03,14,08,35,997.63
2012,03,14,08,36,997.60
2012,03,14,08,37,997.66
2012,03,14,08,38,997.80
2012,03,14,08,39,997.83
2012,03,14,08,40,997.97
2012,03,14,08,41,997.87
2012,03,14,08,42,997.80
2012,03,14,08,43,997.73
2012,03,14,08,44,997.66
2012,03,14,08,45,997.90
2012,03,14,08,46,997.83
2012,03,14,08,47,997.80
2012,03,14,08,48,997.83
2012,03,14,08,49,997.73
2012,03,14,08,50,997.83
2012,03,14,08,51,997.79
2012,03,14,08,52,997.70
2012,03,14,08,53,997.80
2012,03,14,08,54,997.83
2012,03,14,08,55,997.66
2012,03,14,08,56,997.70
2012,03,14,08,57,997.66
2012,03,14,08,58,997.77
2012,03,14,08,59,997.77
2012,03,14,09,00,997.70
2012,03,14,09,01,997.80
2012,03,14,09,02,997.80
2012,03,14,09,03,997.73
2012,03,14,09,04,997.77
2012,03,14,09,05,997.77
2012,03,14,09,06,997.80
2012,03,14,09,07,997.66
2012,03,14,09,08,997.79
2012,03,14,09,09,997.87
2012,03,14,09,10,997.73
2012,03,14,09,11,997.83
2012,03,14,09,12,997.80
2012,03,14,09,13,997.90
2012,03,14,09,14,997.94
2012,03,14,09,15,997.94
2012,03,14,09,16,998.04
2012,03,14,09,17,997.94
2012,03,14,09,18,998.04
2012,03,14,09,19,998.04
2012,03,14,09,20,997.97
2012,03,14,09,21,998.07
2012,03,14,09,22,998.17
2012,03,14,09,23,998.10
2012,03,14,09,24,998.21
2012,03,14,09,25,998.24
2012,03,14,09,26,998.27
2012,03,14,09,27,998.24
2012,03,14,09,28,998.31
2012,03,14,09,29,998.31
2012,03,14,09,30,998.38
2012,03,14,09,31,998.34
2012,03,14,09,32,998.41
2012,03,14,09,33,998.48
2012,03,14,09,34,998.44
2012,03,14,09,35,998.48
2012,03,14,09,36,998.44
2012,03,14,09,37,998.44
2012,03,14,09,38,998.51
2012,03,14,09,39,998.58
2012,03,14,09,40,998.61
2012,03,14,09,41,998.58
2012,03,14,09,42,998.51
2012,03,14,09,43,998.61
2012,03,14,09,44,998.68
2012,03,14,09,45,998.58
2012,03,14,09,46,998.65
2012,03,14,09,47,998.65
2012,03,14,09,48,998.65
2012,03,14,09,49,998.65
2012,03,14,09,50,998.68
2012,03,14,09,51,998.68
2012,03,14,09,52,998.78
2012,03,14,09,53,998.71
2012,03,14,09,54,998.78
2012,03,14,09,55,998.78
2012,03,14,09,56,998.82
2012,03,14,09,57,998.88
2012,03,14,09,58,998.88
2012,03,14,09,59,998.95
2012,03,14,10,00,998.95
2012,03,14,10,01,998.95
2012,03,14,10,02,998.88
2012,03,14,10,03,998.92
2012,03,14,10,04,998.82
2012,03,14,10,05,998.78
2012,03,14,10,06,998.78
2012,03,14,10,07,998.85
2012,03,14,10,08,998.98
2012,03,14,10,09,999.09
2012,03,14,10,10,999.09
2012,03,14,10,11,999.22
2012,03,14,10,12,999.26
2012,03,14,10,13,999.26
2012,03,14,10,14,999.26
2012,03,14,10,15,999.26
2012,03,14,10,16,999.36
2012,03,14,10,17,999.29
2012,03,14,10,18,999.43
2012,03,14,10,19,999.39
2012,03,14,10,20,999.39
2012,03,14,10,21,999.36
2012,03,14,10,22,999.36
2012,03,14,10,23,999.36
2012,03,14,10,24,999.39
2012,03,14,10,25,999.39
2012,03,14,10,26,999.32
2012,03,14,10,27,999.36
2012,03,14,10,28,999.36
2012,03,14,10,29,999.42
2012,03,14,10,30,999.26
2012,03,14,10,31,999.26
2012,03,14,10,32,999.35
2012,03,14,10,33,999.20
2012,03,14,10,34,999.26
2012,03,14,10,35,999.26
2012,03,14,10,36,999.22
2012,03,14,10,37,999.26
2012,03,14,10,38,999.19
2012,03,14,10,39,999.26
2012,03,14,10,40,999.29
2012,03,14,10,41,999.32
2012,03,14,10,42,999.43
2012,03,14,10,43,999.32
2012,03,14,10,44,999.27
2012,03,14,10,45,999.36
2012,03,14,10,46,999.36
2012,03,14,10,47,999.36
2012,03,14,10,48,999.43
2012,03,14,10,49,999.39
2012,03,14,10,50,999.53
2012,03,14,10,51,999.40
2012,03,14,10,52,999.46
2012,03,14,10,53,999.43
2012,03,14,10,54,999.39
2012,03,14,10,55,999.39
2012,03,14,10,56,999.59
2012,03,14,10,57,999.46
2012,03,14,10,58,999.56
2012,03,14,10,59,999.39
2012,03,14,11,00,999.39
2012,03,14,11,01,999.46
2012,03,14,11,02,999.42
2012,03,14,11,03,999.32
2012,03,14,11,04,999.39
2012,03,14,11,05,999.43
2012,03,14,11,06,999.46
2012,03,14,11,07,999.46
2012,03,14,11,08,999.46
2012,03,14,11,09,999.53
2012,03,14,11,10,999.46
2012,03,14,11,11,999.56
2012,03,14,11,12,999.59
2012,03,14,11,13,999.63
2012,03,14,11,14,999.56
2012,03,14,11,15,999.56
2012,03,14,11,16,999.53
2012,03,14,11,17,999.56
2012,03,14,11,18,999.63
2012,03,14,11,19,999.66
2012,03,14,11,20,999.73
2012,03,14,11,21,999.73
2012,03,14,11,22,999.80
2012,03,14,11,23,999.80
2012,03,14,11,24,999.80
2012,03,14,11,25,999.76
2012,03,14,11,26,999.76
2012,03,14,11,27,999.80
2012,03,14,11,28,999.73
2012,03,14,11,29,999.76
2012,03,14,11,30,999.76
2012,03,14,11,31,999.76
2012,03,14,11,32,999.73
2012,03,14,11,33,999.76
2012,03,14,11,34,999.80
2012,03,14,11,35,999.86
2012,03,14,11,36,999.76
2012,03,14,11,37,999.70
2012,03,14,11,38,999.76
2012,03,14,11,39,999.76
2012,03,14,11,40,999.66
2012,03,14,11,41,999.70
2012,03,14,11,42,999.59
2012,03,14,11,43,999.66
2012,03,14,11,44,999.59
2012,03,14,11,45,999.63
2012,03,14,11,46,999.66
2012,03,14,11,47,999.75
2012,03,14,11,48,999.66
2012,03,14,11,49,999.70
2012,03,14,11,50,999.70
2012,03,14,11,51,999.73
2012,03,14,11,52,999.73
2012,03,14,11,53,999.76
2012,03,14,11,54,999.70
2012,03,14,11,55,999.70
2012,03,14,11,56,999.66
2012,03,14,11,57,999.73
2012,03,14,11,58,999.70
2012,03,14,11,59,999.76
2012,03,14,12,00,999.73
2012,03,14,12,01,999.80
2012,03,14,12,02,999.87
2012,03,14,12,03,999.93
2012,03,14,12,04,999.90
2012,03,14,12,05,999.93
2012,03,14,12,06,999.93
2012,03,14,12,07,999.93
2012,03,14,12,08,999.93
2012,03,14,12,09,999.90
2012,03,14,12,10,999.87
2012,03,14,12,11,999.87
2012,03,14,12,12,999.93
2012,03,14,12,13,999.87
2012,03,14,12,14,999.93
2012,03,14,12,15,999.90
2012,03,14,12,16,999.90
2012,03,14,12,17,999.87
2012,03,14,12,18,999.83
2012,03,14,12,19,999.97
2012,03,14,12,20,999.87
2012,03,14,12,21,999.90
2012,03,14,12,22,999.90
2012,03,14,12,23,999.90
2012,03,14,12,24,999.93
2012,03,14,12,25,999.90
2012,03,14,12,26,999.93
2012,03,14,12,27,999.83
2012,03,14,12,28,999.90
2012,03,14,12,29,999.83
2012,03,14,12,30,999.90
2012,03,14,12,31,999.90
2012,03,14,12,32,999.93
2012,03,14,12,33,999.87
2012,03,14,12,34,999.90
2012,03,14,12,35,999.90
2012,03,14,12,36,999.93
2012,03,14,12,37,999.90
2012,03,14,12,38,999.97
2012,03,14,12,39,999.97
2012,03,14,12,40,999.93
2012,03,14,12,41,999.90
2012,03,14,12,42,999.97
2012,03,14,12,43,1000.00
2012,03,14,12,44,1000.03
2012,03,14,12,45,1000.10
2012,03,14,12,46,1000.03
2012,03,14,12,47,1000.10
2012,03,14,12,48,1000.07
2012,03,14,12,49,1000.10
2012,03,14,12,50,1000.10
2012,03,14,12,51,1000.14
2012,03,14,12,52,1000.14
2012,03,14,12,53,1000.17
2012,03,14,12,54,1000.14
2012,03,14,12,55,1000.10
2012,03,14,12,56,1000.17
2012,03,14,12,57,1000.17
2012,03,14,12,58,1000.20
2012,03,14,12,59,1000.31
2012,03,14,13,00,1000.27
2012,03,14,13,01,1000.24
2012,03,14,13,02,1000.34
2012,03,14,13,03,1000.41
2012,03,14,13,04,1000.31
2012,03,14,13,05,1000.34
2012,03,14,13,06,1000.31
2012,03,14,13,07,1000.34
2012,03,14,13,08,1000.31
2012,03,14,13,09,1000.24
2012,03,14,13,10,1000.24
2012,03,14,13,11,1000.27
2012,03,14,13,12,1000.20
2012,03,14,13,13,1000.24
2012,03,14,13,14,1000.20
2012,03,14,13,15,1000.14
2012,03,14,13,16,1000.17
2012,03,14,13,17,1000.20
2012,03,14,13,18,1000.24
2012,03,14,13,19,1000.17
2012,03,14,13,20,1000.17
2012,03,14,13,21,1000.20
2012,03,14,13,22,1000.20
2012,03,14,13,23,1000.24
2012,03,14,13,24,1000.17
2012,03,14,13,25,1000.17
2012,03,14,13,26,1000.14
2012,03,14,13,27,1000.17
2012,03,14,13,28,1000.20
2012,03,14,13,29,1000.24
2012,03,14,13,30,1000.20
2012,03,14,13,31,1000.17
2012,03,14,13,32,1000.17
2012,03,14,13,33,1000.20
2012,03,14,13,34,1000.17
2012,03,14,13,35,1000.17
2012,03,14,13,36,1000.20
2012,03,14,13,37,1000.20
2012,03,14,13,38,1000.24
2012,03,14,13,39,1000.24
2012,03,14,13,40,1000.27
2012,03,14,13,41,1000.37
2012,03,14,13,42,1000.41
2012,03,14,13,43,1000.48
2012,03,14,13,44,1000.54
2012,03,14,13,45,1000.48
2012,03,14,13,46,1000.48
2012,03,14,13,47,1000.58
2012,03,14,13,48,1000.61
2012,03,14,13,49,1000.64
2012,03,14,13,50,1000.64
2012,03,14,13,51,1000.68
2012,03,14,13,52,1000.75
2012,03,14,13,53,1000.78
2012,03,14,13,54,1000.78
2012,03,14,13,55,1000.78
2012,03,14,13,56,1000.75
2012,03,14,13,57,1000.75
2012,03,14,13,58,1000.85
2012,03,14,13,59,1000.78
2012,03,14,14,00,1000.85
2012,03,14,14,01,1000.88
2012,03,14,14,02,1000.88
2012,03,14,14,03,1000.88
2012,03,14,14,04,1000.92
2012,03,14,14,05,1000.95
2012,03,14,14,06,1000.88
2012,03,14,14,07,1000.95
2012,03,14,14,08,1000.88
2012,03,14,14,09,1000.88
2012,03,14,14,10,1000.81
2012,03,14,14,11,1000.88
2012,03,14,14,12,1000.85
2012,03,14,14,13,1000.85
2012,03,14,14,14,1000.78
2012,03,14,14,15,1000.78
2012,03,14,14,16,1000.78
2012,03,14,14,17,1000.85
2012,03,14,14,18,1000.88
2012,03,14,14,19,1000.88
2012,03,14,14,20,1000.85
2012,03,14,14,21,1000.88
2012,03,14,14,22,1000.88
2012,03,14,14,23,1000.81
2012,03,14,14,24,1000.81
2012,03,14,14,25,1000.85
2012,03,14,14,26,1000.81
2012,03,14,14,27,1000.88
2012,03,14,14,28,1000.85
2012,03,14,14,29,1000.88
2012,03,14,14,30,1000.95
2012,03,14,14,31,1000.85
2012,03,14,14,32,1000.88
2012,03,14,14,33,1000.88
2012,03,14,14,34,1000.92
2012,03,14,14,35,1000.95
2012,03,14,14,36,1000.98
2012,03,14,14,37,1001.05
2012,03,14,14,38,1001.08
2012,03,14,14,39,1001.02
2012,03,14,14,40,1001.02
2012,03,14,14,41,1001.08
2012,03,14,14,42,1001.08
2012,03,14,14,43,1001.08
2012,03,14,14,44,1001.05
2012,03,14,14,45,1001.05
2012,03,14,14,46,1001.05
2012,03,14,14,47,1000.98
2012,03,14,14,48,1001.08
2012,03,14,14,49,1001.02
2012,03,14,14,50,1001.05
2012,03,14,14,51,1001.05
2012,03,14,14,52,1001.02
2012,03,14,14,53,1001.05
2012,03,14,14,54,1001.02
2012,03,14,14,55,1001.02
2012,03,14,14,56,1001.08
2012,03,14,14,57,1001.05
2012,03,14,14,58,1001.05
2012,03,14,14,59,1001.08
2012,03,14,15,00,1001.05
2012,03,14,15,01,1001.05
2012,03,14,15,02,1001.08
2012,03,14,15,03,1001.02
2012,03,14,15,04,1001.08
2012,03,14,15,05,1001.08
2012,03,14,15,06,1001.08
2012,03,14,15,07,1001.12
2012,03,14,15,08,1001.15
2012,03,14,15,09,1001.15
2012,03,14,15,10,1001.12
2012,03,14,15,11,1001.08
2012,03,14,15,12,1001.15
2012,03,14,15,13,1001.15
2012,03,14,15,14,1001.08
2012,03,14,15,15,1001.22
2012,03,14,15,16,1001.15
2012,03,14,15,17,1001.19
2012,03,14,15,18,1001.22
2012,03,14,15,19,1001.19
2012,03,14,15,20,1001.19
2012,03,14,15,21,1001.25
2012,03,14,15,22,1001.29
2012,03,14,15,23,1001.22
2012,03,14,15,24,1001.25
2012,03,14,15,25,1001.25
2012,03,14,15,26,1001.32
2012,03,14,15,27,1001.36
2012,03,14,15,28,1001.36
2012,03,14,15,29,1001.36
2012,03,14,15,30,1001.42
2012,03,14,15,31,1001.46
2012,03,14,15,32,1001.42
2012,03,14,15,33,1001.46
2012,03,14,15,34,1001.42
2012,03,14,15,35,1001.49
2012,03,14,15,36,1001.42
2012,03,14,15,37,1001.52
2012,03,14,15,38,1001.49
2012,03,14,15,39,1001.52
2012,03,14,15,40,1001.46
2012,03,14,15,41,1001.49
2012,03,14,15,42,1001.46
2012,03,14,15,43,1001.46
2012,03,14,15,44,1001.42
2012,03,14,15,45,1001.39
2012,03,14,15,46,1001.42
2012,03,14,15,47,1001.46
2012,03,14,15,48,1001.42
2012,03,14,15,49,1001.46
2012,03,14,15,50,1001.46
2012,03,14,15,51,1001.56
2012,03,14,15,52,1001.49
2012,03,14,15,53,1001.49
2012,03,14,15,54,1001.52
2012,03,14,15,55,1001.56
2012,03,14,15,56,1001.52
2012,03,14,15,57,1001.63
2012,03,14,15,58,1001.59
2012,03,14,15,59,1001.66
2012,03,14,16,00,1001.63
2012,03,14,16,01,1001.63
2012,03,14,16,02,1001.66
2012,03,14,16,03,1001.63
2012,03,14,16,04,1001.63
2012,03,14,16,05,1001.69
2012,03,14,16,06,1001.76
2012,03,14,16,07,1001.73
2012,03,14,16,08,1001.76
2012,03,14,16,09,1001.83
2012,03,14,16,10,1001.76
2012,03,14,16,11,1001.76
2012,03,14,16,12,1001.83
2012,03,14,16,13,1001.80
2012,03,14,16,14,1001.80